Location: Guferjoch
(46.7462°N, 8.4506°E)
Time: 20:46:13
(UTC+00:00)

CZ-2D R/B - Visible Passes

Search period start: 15 May 2021 00:00
Search period end: 25 May 2021 00:00
Orbit: 792 x 844 km, 98.7° (Epoch: 14 May)

Date Brightness Start Highest point End Pass type
(mag) Time Alt. Az. Time Alt. Az. Time Alt. Az.
15 May 2.2 01:00:03 10° NNE 01:05:28 72° ESE 01:07:39 36° S visible
15 May 3.8 02:41:09 10° NNW 02:44:56 20° WNW 02:48:41 10° WSW visible
16 May 2.8 00:38:54 10° NNE 00:44:07 47° E 00:46:10 32° SSE visible
16 May 3.4 02:19:24 10° N 02:23:54 28° WNW 02:27:29 14° WSW visible
17 May 3.4 00:17:55 10° NNE 00:22:41 32° E 00:24:40 24° SE visible
17 May 2.9 01:57:48 10° N 02:02:48 40° WNW 02:06:00 20° SW visible
17 May 3.9 23:57:10 10° NE 00:01:12 21° E 00:03:10 17° ESE visible
18 May 2.3 01:36:21 10° N 01:41:39 59° WNW 01:44:29 27° SW visible
18 May 4.3 23:36:57 10° ENE 23:39:37 14° E 23:41:40 11° ESE visible
19 May 2.1 01:15:01 10° NNE 01:20:25 87° WNW 01:23:00 32° SSW visible
19 May 4.1 02:56:40 10° NNW 02:59:40 15° NW 03:02:38 10° W visible
20 May 2.3 00:53:46 10° NNE 00:59:06 63° ESE 01:01:29 32° S visible
20 May 3.7 02:34:41 10° N 02:38:41 22° WNW 02:42:37 10° WSW visible
21 May 2.9 00:32:39 10° NNE 00:37:43 42° E 00:39:59 28° SSE visible
21 May 3.2 02:12:59 10° N 02:17:37 31° WNW 02:21:19 14° WSW visible
22 May 3.5 00:11:44 10° NE 00:16:17 28° E 00:18:29 21° SE visible
22 May 2.7 01:51:26 10° N 01:56:30 44° WNW 01:59:48 20° SW visible
22 May 4.0 23:51:06 10° NE 23:54:46 19° E 23:56:58 15° ESE visible
23 May 2.2 01:30:01 10° N 01:35:19 66° WNW 01:38:18 26° SSW visible
23 May 4.4 23:31:14 10° ENE 23:33:10 12° E 23:35:06 10° ESE visible
24 May 2.1 01:08:41 10° NNE 01:14:04 84° ESE 01:16:47 30° S visible
24 May 4.0 02:50:06 10° NNW 02:53:24 17° NW 02:56:40 10° W visible
